User: anonymous   Login
Location: Peterborough
(44.3091°N, 78.3197°W)
Time: 16:49:43
(UTC-04:00)
Language:

Explorer 7 - Orbit

View from above orbital plane
View from above orbital plane
View from above satellite
View from above satellite

Ground track
Ground track

The orbit data is extracted from the following two-line orbital elements,

1    22U 59009A   24146.50440997  .00009815  00000-0  57818-3 0  9997
2    22  50.2759 161.4064 0114355  20.6154 339.9358 15.06806254440941
Epoch (UTC): 25 May 2024 12:06:21
Eccentricity: 0.0114355
inclination: 50.2759°
perigee height: 467 km
apogee height: 625 km
right ascension of ascending node: 161.4064°
argument of perigee: 20.6154°
revolutions per day: 15.06806254
mean anomaly at epoch: 339.9358°
orbit number at epoch: 44094

The dashed part of the orbit path shows where the satellite is in the earth's shadow,  

DLR